Chehalis, WA
on Friday, November 9, 2012

Friday
Previous Day Next Day
Daily Summary
 ActualAverage (KOLM)Record (KOLM)
Temperature
Mean Temperature °F 45°F  
Max Temperature 44°F 52°F 62°F (1956)
Min Temperature 28°F 38°F 23°F (1978)
Degree Days
Heating Degree Days 29 20  
Month to date heating degree days 174  
Since 1 July heating degree days 968  
Cooling Degree Days 0 0  
Month to date cooling degree days 0  
Year to date cooling degree days 106  
Moisture
Dew Point 34°F   
Average Humidity 95    
Maximum Humidity 100    
Minimum Humidity 71    
Precipitation
Precipitation 0.00 in 0.27 in 1.52 in (1961)
Month to date precipitation 2.29  
Year to date precipitation 36.20  
Wind
Wind Speed 2 mph   
Max Wind Speed 5 mph   
Max Gust Speed mph   
Visibility 6 miles   
Events Fog , Rain   

Key: T is trace of precipitation, MM is missing value
Source: NWS Daily Summary
Time(PST)TemperatureDew PointHumidity Pressure Visibility Wind DirectionWind SpeedGust SpeedPrecipitationEvents Conditions
12:15 AM 32.0°F 32.0°F 100% 29.88 in 0.2 miles Calm Calm - N/A Fog Fog
12:35 AM 32.0°F 32.0°F 100% 29.88 in 0.5 miles South 4.6 mph - N/A Fog Fog
12:55 AM 32.0°F 32.0°F 100% 29.88 in 1.2 miles Calm Calm - N/A   Mist
1:15 AM 32.0°F 32.0°F 100% 29.88 in 0.5 miles SSW 4.6 mph - N/A Fog Fog
1:35 AM 32.0°F 32.0°F 100% 29.88 in 0.2 miles SSW 3.5 mph - N/A Fog Fog
1:55 AM 32.0°F 32.0°F 100% 29.89 in 0.2 miles SSW 3.5 mph - N/A Fog Fog
2:15 AM 32.0°F 32.0°F 100% 29.88 in 0.2 miles South 4.6 mph - N/A Fog Fog
2:35 AM 32.0°F 32.0°F 100% 29.89 in 0.2 miles South 3.5 mph - N/A Fog Fog
3:15 AM 32.0°F 32.0°F 100% 29.89 in 0.2 miles SW 3.5 mph - N/A Fog Fog
3:35 AM 32.0°F 32.0°F 100% 29.89 in 0.2 miles Calm Calm - N/A Fog Fog
3:55 AM 32.0°F 32.0°F 100% 29.89 in 0.2 miles SSW 3.5 mph - N/A Fog Fog
4:15 AM 32.0°F 32.0°F 100% 29.89 in 0.2 miles SSW 3.5 mph - N/A Fog Fog
4:35 AM 32.0°F 32.0°F 100% 29.89 in 0.5 miles SW 3.5 mph - N/A Fog Fog
4:55 AM 32.0°F 32.0°F 100% 29.89 in 0.5 miles SW 4.6 mph - N/A Fog Light Freezing Fog
5:15 AM 32.0°F 32.0°F 100% 29.90 in 0.8 miles SW 4.6 mph - N/A   Mist
5:35 AM 32.0°F 32.0°F 100% 29.90 in 1.0 miles SW 4.6 mph - N/A   Mist
5:55 AM 32.0°F 32.0°F 100% 29.90 in 3.0 miles SW 3.5 mph - N/A   Mist
6:15 AM 32.0°F 32.0°F 100% 29.90 in 10.0 miles SW 3.5 mph - N/A   Unknown
6:35 AM 32.0°F 32.0°F 100% 29.90 in 10.0 miles SW 3.5 mph - N/A   Unknown
7:15 AM 32.0°F 32.0°F 100% 29.90 in 9.0 miles WSW 3.5 mph - N/A   Unknown
7:35 AM 32.0°F 32.0°F 100% 29.91 in 8.0 miles WSW 4.6 mph - N/A   Unknown
7:55 AM 32.0°F 32.0°F 100% 29.92 in 10.0 miles Calm Calm - N/A   Unknown
8:15 AM 32.0°F 32.0°F 100% 29.92 in 7.0 miles South 4.6 mph - N/A   Unknown
8:35 AM 32.0°F 32.0°F 100% 29.92 in 7.0 miles West 3.5 mph - N/A   Unknown
8:55 AM 33.8°F 32.0°F 93% 29.92 in 10.0 miles Calm Calm - N/A   Unknown
9:15 AM 35.6°F 35.6°F 100% 29.92 in 10.0 miles SSW 4.6 mph - N/A   Unknown
9:35 AM 35.6°F 35.6°F 100% 29.92 in 10.0 miles SW 3.5 mph - N/A   Unknown
9:55 AM 35.6°F 33.8°F 93% 29.92 in 9.0 miles SW 4.6 mph - N/A   Unknown
10:15 AM 35.6°F 33.8°F 93% 29.93 in 3.0 miles SSW 3.5 mph - N/A   Mist
10:35 AM 35.6°F 35.6°F 100% 29.92 in 6.0 miles SW 3.5 mph - N/A   Mist
10:55 AM 37.4°F 35.6°F 93% 29.92 in 9.0 miles SW 3.5 mph - N/A Rain Light Rain
11:15 AM 37.4°F 35.6°F 93% 29.92 in 10.0 miles SW 3.5 mph - N/A   Unknown
11:35 AM 37.4°F 35.6°F 93% 29.92 in 9.0 miles Calm Calm - N/A   Unknown
11:55 AM 37.4°F 37.4°F 100% 29.92 in 5.0 miles Calm Calm - N/A   Mist
12:15 PM 39.2°F 37.4°F 93% 29.91 in 10.0 miles Calm Calm - N/A   Unknown
12:35 PM 39.2°F 37.4°F 93% 29.91 in 5.0 miles Calm Calm - N/A   Mist
12:55 PM 41.0°F 37.4°F 87% 29.90 in 6.0 miles Calm Calm - N/A   Mist
1:15 PM 41.0°F 37.4°F 87% 29.90 in 10.0 miles Calm Calm - N/A   Unknown
1:35 PM 41.0°F 39.2°F 93% 29.90 in 10.0 miles NNE 3.5 mph - N/A   Unknown
1:55 PM 41.0°F 39.2°F 93% 29.90 in 7.0 miles NNE 4.6 mph - N/A   Unknown
2:35 PM 44.6°F 37.4°F 76% 29.89 in 6.0 miles Calm Calm - N/A   Haze
2:55 PM 44.6°F 37.4°F 76% 29.89 in 10.0 miles Calm Calm - N/A   Unknown
3:15 PM 44.6°F 35.6°F 71% 29.88 in 10.0 miles Calm Calm - N/A   Unknown
3:35 PM 44.6°F 37.4°F 76% 29.88 in 10.0 miles Calm Calm - N/A   Unknown
3:55 PM 44.6°F 37.4°F 76% 29.88 in 10.0 miles Calm Calm - N/A   Unknown
4:15 PM 42.8°F 37.4°F 81% 29.89 in 10.0 miles Calm Calm - N/A   Unknown
4:35 PM 41.0°F 37.4°F 87% 29.89 in 10.0 miles Calm Calm - N/A   Unknown
4:55 PM 39.2°F 37.4°F 93% 29.89 in 10.0 miles NNE 3.5 mph - N/A   Unknown
5:15 PM 37.4°F 35.6°F 93% 29.90 in 10.0 miles Calm Calm - N/A   Unknown
5:35 PM 37.4°F 35.6°F 93% 29.90 in 10.0 miles Calm Calm - N/A   Unknown
5:55 PM 37.4°F 35.6°F 93% 29.91 in 10.0 miles Calm Calm - N/A   Unknown
6:15 PM 35.6°F 33.8°F 93% 29.91 in 10.0 miles NE 3.5 mph - N/A   Unknown
6:35 PM 35.6°F 33.8°F 93% 29.92 in 9.0 miles Calm Calm - N/A   Unknown
6:55 PM 32.0°F 32.0°F 100% 29.92 in 7.0 miles Calm Calm - N/A   Unknown
7:15 PM 33.8°F 32.0°F 93% 29.92 in 10.0 miles Calm Calm - N/A   Unknown
7:35 PM 32.0°F 32.0°F 100% 29.93 in 9.0 miles Calm Calm - N/A   Unknown
7:55 PM 32.0°F 32.0°F 100% 29.93 in 5.0 miles Calm Calm - N/A   Mist
8:15 PM 32.0°F 32.0°F 100% 29.94 in 8.0 miles Calm Calm - N/A   Unknown
8:35 PM 32.0°F 32.0°F 100% 29.94 in 2.5 miles Calm Calm - N/A   Mist
8:55 PM 32.0°F 32.0°F 100% 29.94 in 1.0 miles Calm Calm - N/A   Mist
9:15 PM 32.0°F 32.0°F 100% 29.95 in 0.2 miles Calm Calm - N/A Fog Light Freezing Fog
9:35 PM 30.2°F 30.2°F 100% 29.95 in 1.0 miles Calm Calm - N/A   Mist
9:55 PM 30.2°F 30.2°F 100% 29.95 in 0.5 miles Calm Calm - N/A Fog Light Freezing Fog
10:15 PM 28.4°F 28.4°F 100% 29.96 in 0.2 miles Calm Calm - N/A Fog Light Freezing Fog
10:35 PM 28.4°F 28.4°F 100% 29.96 in 0.2 miles Calm Calm - N/A Fog Light Freezing Fog
Moon Phase
Nov. 09 Nov. 13 Nov. 20 Nov. 28 Dec. 06
Sunrise:07:06 AM (PST) Moon Rise:01:55 AM (PST)11/9
Sunset:04:44 PM (PST) Moon Set:02:14 PM (PST)11/9

Copyright © 2014 The Weather Underground, Inc.